RYR8521 LKPR-EPPO

Flight info

Callsign RYR8521
Flight time 0h 39m
Altitude 27000
Route ARTUP DCT TOMTI P733 AKAPI
Aircraft B738/M-SDE2E3FGHIRWXY/LB1

Departure

Time 2026-05-05 14:21
Airport Václav Havel Airport Prague (LKPR)

Arrival

Time 2026-05-05 15:00
Airport Poznań-Ławica Airport (EPPO)
Time Latitude Longitude Altitude Speed Heading
2026-05-05 13:55 50.10461 14.26533 1173 ft 0 kts 34°
2026-05-05 13:55 50.10457 14.26528 1168 ft 0 kts 34°
2026-05-05 14:15 50.10451 14.26522 1173 ft 3 kts 36°
2026-05-05 14:15 50.10436 14.26501 1168 ft 3 kts 61°
2026-05-05 14:16 50.10433 14.26478 1169 ft 3 kts 118°
2026-05-05 14:16 50.10435 14.26471 1169 ft 1 kts 124°
2026-05-05 14:18 50.10416 14.26514 1170 ft 13 kts 123°
2026-05-05 14:18 50.10350 14.26616 1171 ft 12 kts 181°
2026-05-05 14:18 50.10285 14.26555 1172 ft 12 kts 216°
2026-05-05 14:18 50.10212 14.26570 1173 ft 13 kts 132°
2026-05-05 14:19 50.10129 14.26747 1178 ft 27 kts 127°
2026-05-05 14:19 50.09994 14.27018 1196 ft 36 kts 126°
2026-05-05 14:19 50.09848 14.27320 1202 ft 34 kts 131°
2026-05-05 14:19 50.09686 14.27569 1206 ft 31 kts 135°
2026-05-05 14:20 50.09564 14.27602 1212 ft 19 kts 224°
2026-05-05 14:20 50.09461 14.27478 1210 ft 18 kts 216°
2026-05-05 14:20 50.09417 14.27414 1209 ft 2 kts 262°
2026-05-05 14:20 50.09445 14.27332 1208 ft 30 kts 308°
2026-05-05 14:21 50.09797 14.26610 1205 ft 135 kts 306°
2026-05-05 14:21 50.10533 14.25109 1479 ft 201 kts 309°
2026-05-05 14:21 50.11421 14.23223 2396 ft 230 kts 307°
2026-05-05 14:21 50.12419 14.21121 3302 ft 250 kts 308°
2026-05-05 14:22 50.13492 14.18872 4245 ft 266 kts 307°
2026-05-05 14:22 50.14618 14.16500 5255 ft 270 kts 310°
2026-05-05 14:22 50.16065 14.14706 6240 ft 276 kts 339°
2026-05-05 14:22 50.17970 14.14370 7170 ft 282 kts
2026-05-05 14:23 50.19822 14.15417 8122 ft 290 kts 32°
2026-05-05 14:23 50.21416 14.17413 9100 ft 296 kts 44°
2026-05-05 14:23 50.22911 14.19673 10104 ft 302 kts 46°
2026-05-05 14:23 50.24419 14.22040 10574 ft 327 kts 46°
2026-05-05 14:24 50.26093 14.24679 11062 ft 347 kts 46°
2026-05-05 14:24 50.27818 14.27382 11968 ft 353 kts 45°
2026-05-05 14:24 50.29572 14.30108 12947 ft 357 kts 45°
2026-05-05 14:24 50.31354 14.32863 13858 ft 362 kts 45°
2026-05-05 14:25 50.33158 14.35644 14665 ft 368 kts 45°
2026-05-05 14:25 50.34996 14.38472 15505 ft 373 kts 45°
2026-05-05 14:25 50.36857 14.41335 16341 ft 378 kts 45°
2026-05-05 14:25 50.38750 14.44250 17162 ft 383 kts 44°
2026-05-05 14:26 50.40663 14.47198 17975 ft 389 kts 44°
2026-05-05 14:26 50.42605 14.50194 18678 ft 394 kts 44°
2026-05-05 14:26 50.44572 14.53233 19389 ft 398 kts 44°
2026-05-05 14:26 50.46563 14.56311 20094 ft 403 kts 45°
2026-05-05 14:27 50.48528 14.59353 20776 ft 407 kts 45°
2026-05-05 14:27 50.50564 14.62510 21451 ft 412 kts 45°
2026-05-05 14:27 50.52622 14.65705 22105 ft 417 kts 45°
2026-05-05 14:27 50.54691 14.68922 22711 ft 418 kts 45°
2026-05-05 14:28 50.56766 14.72151 22763 ft 419 kts 45°
2026-05-05 14:28 50.58831 14.75370 22784 ft 418 kts 45°
2026-05-05 14:28 50.60896 14.78592 22790 ft 418 kts 45°
2026-05-05 14:28 50.62956 14.81813 22781 ft 418 kts 45°
2026-05-05 14:29 50.65024 14.85048 22792 ft 418 kts 45°
2026-05-05 14:29 50.67098 14.88297 22794 ft 421 kts 45°
2026-05-05 14:29 50.69179 14.91547 22914 ft 434 kts 44°
2026-05-05 14:29 50.71414 14.94852 23285 ft 443 kts 42°
2026-05-05 14:30 50.73715 14.98137 23869 ft 445 kts 42°
2026-05-05 14:30 50.76008 15.01384 24600 ft 442 kts 41°
2026-05-05 14:30 50.78289 15.04629 25371 ft 438 kts 41°
2026-05-05 14:30 50.80528 15.07825 26071 ft 436 kts 42°
2026-05-05 14:31 50.82763 15.11049 26672 ft 436 kts 42°
2026-05-05 14:31 50.85001 15.14297 26781 ft 435 kts 42°
2026-05-05 14:31 50.87223 15.17530 26813 ft 437 kts 42°
2026-05-05 14:31 50.89467 15.20795 26809 ft 437 kts 42°
2026-05-05 14:32 50.91716 15.24070 26807 ft 437 kts 42°
2026-05-05 14:32 50.93937 15.27307 26799 ft 436 kts 42°
2026-05-05 14:32 50.96190 15.30495 26818 ft 436 kts 39°
2026-05-05 14:32 50.98566 15.33513 26818 ft 435 kts 37°
2026-05-05 14:33 51.00994 15.36435 26824 ft 435 kts 36°
2026-05-05 14:33 51.03427 15.39314 26813 ft 436 kts 36°
2026-05-05 14:33 51.05831 15.42164 26804 ft 436 kts 36°
2026-05-05 14:33 51.08263 15.45074 26826 ft 437 kts 36°
2026-05-05 14:34 51.10692 15.48004 26805 ft 438 kts 36°
2026-05-05 14:34 51.13107 15.50939 26810 ft 438 kts 36°
2026-05-05 14:34 51.15536 15.53904 26812 ft 438 kts 36°
2026-05-05 14:34 51.17948 15.56858 26821 ft 438 kts 36°
2026-05-05 14:35 51.20377 15.59837 26809 ft 439 kts 36°
2026-05-05 14:35 51.22792 15.62804 26807 ft 439 kts 36°
2026-05-05 14:35 51.25156 15.65711 26804 ft 436 kts 36°
2026-05-05 14:35 51.27563 15.68676 26802 ft 432 kts 36°
2026-05-05 14:36 51.29976 15.71650 26831 ft 432 kts 36°
2026-05-05 14:36 51.32356 15.74588 26817 ft 434 kts 36°
2026-05-05 14:36 51.34757 15.77554 26666 ft 436 kts 36°
2026-05-05 14:36 51.37113 15.80471 26258 ft 432 kts 37°
2026-05-05 14:37 51.39482 15.83407 25783 ft 427 kts 37°
2026-05-05 14:37 51.41817 15.86306 25275 ft 423 kts 37°
2026-05-05 14:37 51.44133 15.89184 24787 ft 420 kts 37°
2026-05-05 14:37 51.46440 15.92054 24292 ft 417 kts 37°
2026-05-05 14:38 51.48722 15.94898 23798 ft 414 kts 37°
2026-05-05 14:38 51.50994 15.97731 23263 ft 413 kts 37°
2026-05-05 14:38 51.53247 16.00546 22713 ft 410 kts 37°
2026-05-05 14:38 51.55493 16.03356 22185 ft 406 kts 37°
2026-05-05 14:39 51.57710 16.06132 21687 ft 403 kts 37°
2026-05-05 14:39 51.59913 16.08895 21194 ft 399 kts 37°
2026-05-05 14:39 51.62091 16.11629 20714 ft 396 kts 37°
2026-05-05 14:39 51.64258 16.14325 20239 ft 393 kts 36°
2026-05-05 14:40 51.66357 16.16835 19791 ft 390 kts 34°
2026-05-05 14:40 51.68554 16.19416 19312 ft 387 kts 34°
2026-05-05 14:40 51.70716 16.21950 18852 ft 385 kts 34°
2026-05-05 14:40 51.72881 16.24497 18372 ft 383 kts 34°
2026-05-05 14:41 51.75024 16.27029 17861 ft 381 kts 34°
2026-05-05 14:41 51.77157 16.29560 17345 ft 379 kts 34°
2026-05-05 14:41 51.79269 16.32073 16849 ft 376 kts 34°
2026-05-05 14:41 51.81365 16.34571 16388 ft 373 kts 35°
2026-05-05 14:42 51.83454 16.37066 15920 ft 370 kts 35°
2026-05-05 14:42 51.85521 16.39536 15467 ft 367 kts 35°
2026-05-05 14:42 51.87534 16.41944 15155 ft 361 kts 35°
2026-05-05 14:42 51.89520 16.44324 15007 ft 349 kts 35°
2026-05-05 14:43 51.91437 16.46634 14852 ft 339 kts 37°
2026-05-05 14:43 51.93073 16.49377 14541 ft 337 kts 53°
2026-05-05 14:43 51.94437 16.52453 14222 ft 334 kts 54°
2026-05-05 14:43 51.95766 16.55533 13881 ft 332 kts 55°
2026-05-05 14:44 51.97095 16.58596 13533 ft 330 kts 54°
2026-05-05 14:44 51.98423 16.61623 13159 ft 329 kts 54°
2026-05-05 14:44 51.99758 16.64636 12799 ft 327 kts 54°
2026-05-05 14:44 52.01071 16.67588 12467 ft 326 kts 54°
2026-05-05 14:45 52.02393 16.70560 12125 ft 323 kts 54°
2026-05-05 14:45 52.03713 16.73496 11793 ft 322 kts 51°
2026-05-05 14:45 52.05360 16.75929 11457 ft 318 kts 32°
2026-05-05 14:45 52.07203 16.77891 11147 ft 316 kts 31°
2026-05-05 14:46 52.09050 16.79810 10818 ft 314 kts 31°
2026-05-05 14:46 52.10896 16.81742 10497 ft 312 kts 31°
2026-05-05 14:46 52.12712 16.83668 10180 ft 311 kts 31°
2026-05-05 14:46 52.14509 16.85592 9950 ft 306 kts 32°
2026-05-05 14:47 52.16269 16.87489 9588 ft 306 kts 32°
2026-05-05 14:47 52.18028 16.89389 9390 ft 299 kts 32°
2026-05-05 14:47 52.19777 16.91285 8918 ft 303 kts 32°
2026-05-05 14:47 52.21503 16.93156 8798 ft 293 kts 32°
2026-05-05 14:48 52.22624 16.94373 8716 ft 288 kts 32°
2026-05-05 14:48 52.24818 16.96755 8578 ft 285 kts 32°
2026-05-05 14:48 52.26453 16.98550 8480 ft 278 kts 36°
2026-05-05 14:48 52.27679 17.00902 8382 ft 270 kts 65°
2026-05-05 14:49 52.28050 17.02811 8349 ft 264 kts 83°
2026-05-05 14:49 52.28016 17.05761 8258 ft 258 kts 105°
2026-05-05 14:49 52.27527 17.08559 8202 ft 256 kts 111°
2026-05-05 14:49 52.26965 17.11266 8149 ft 247 kts 112°
2026-05-05 14:50 52.26428 17.13880 8063 ft 241 kts 112°
2026-05-05 14:50 52.25909 17.16447 8000 ft 236 kts 112°
2026-05-05 14:50 52.25404 17.18974 7980 ft 233 kts 111°
2026-05-05 14:50 52.24900 17.21500 7999 ft 235 kts 111°
2026-05-05 14:51 52.24396 17.24037 8036 ft 235 kts 111°
2026-05-05 14:51 52.23886 17.26601 7895 ft 240 kts 111°
2026-05-05 14:51 52.23383 17.29211 7692 ft 241 kts 105°
2026-05-05 14:51 52.23458 17.31920 7465 ft 242 kts 72°
2026-05-05 14:52 52.24402 17.34119 7280 ft 238 kts 37°
2026-05-05 14:52 52.25817 17.35333 7065 ft 231 kts 18°
2026-05-05 14:52 52.27359 17.36165 6800 ft 229 kts 16°
2026-05-05 14:52 52.28853 17.36884 6534 ft 226 kts
2026-05-05 14:53 52.30380 17.36718 6260 ft 218 kts 335°
2026-05-05 14:53 52.31558 17.35301 6008 ft 208 kts 306°
2026-05-05 14:53 52.32227 17.33241 5743 ft 204 kts 286°
2026-05-05 14:53 52.32670 17.31064 5464 ft 200 kts 286°
2026-05-05 14:54 52.33154 17.28935 5187 ft 199 kts 288°
2026-05-05 14:54 52.33612 17.26811 4889 ft 197 kts 286°
2026-05-05 14:54 52.34038 17.24679 4610 ft 196 kts 286°
2026-05-05 14:54 52.34451 17.22548 4292 ft 197 kts 286°
2026-05-05 14:55 52.34861 17.20410 4009 ft 196 kts 287°
2026-05-05 14:55 52.35265 17.18294 3752 ft 193 kts 287°
2026-05-05 14:55 52.35651 17.16220 3485 ft 186 kts 287°
2026-05-05 14:55 52.36016 17.14237 3184 ft 179 kts 288°
2026-05-05 14:56 52.36403 17.12280 3126 ft 181 kts 288°
2026-05-05 14:56 52.36777 17.10337 3155 ft 181 kts 288°
2026-05-05 14:56 52.37153 17.08378 3193 ft 181 kts 288°
2026-05-05 14:56 52.37533 17.06402 3121 ft 185 kts 288°
2026-05-05 14:57 52.37906 17.04440 2872 ft 173 kts 289°
2026-05-05 14:57 52.38251 17.02642 2665 ft 159 kts 289°
2026-05-05 14:57 52.38577 17.00944 2458 ft 154 kts 290°
2026-05-05 14:57 52.38893 16.99297 2258 ft 151 kts 290°
2026-05-05 14:58 52.39192 16.97657 2048 ft 149 kts 289°
2026-05-05 14:58 52.39493 16.96049 1893 ft 148 kts 290°
2026-05-05 14:58 52.39794 16.94443 1727 ft 147 kts 291°
2026-05-05 14:58 52.40126 16.92869 1454 ft 146 kts 292°
2026-05-05 14:59 52.40444 16.91284 1255 ft 148 kts 290°
2026-05-05 14:59 52.40741 16.89658 1059 ft 149 kts 291°
2026-05-05 14:59 52.41021 16.88049 815 ft 142 kts 291°
2026-05-05 14:59 52.41346 16.86589 624 ft 135 kts 293°
2026-05-05 15:00 52.41625 16.85065 423 ft 140 kts 291°
2026-05-05 15:00 52.41814 16.84075 335 ft 135 kts 292°
2026-05-05 15:00 52.42151 16.82413 307 ft 87 kts 286°
2026-05-05 15:00 52.42284 16.81702 306 ft 45 kts 284°
2026-05-05 15:01 52.42295 16.81403 307 ft 19 kts 262°
2026-05-05 15:01 52.42271 16.81201 307 ft 16 kts 250°
2026-05-05 15:01 52.42228 16.81163 310 ft 4 kts 162°
2026-05-05 15:01 52.42195 16.81267 309 ft 15 kts 106°
2026-05-05 15:02 52.42161 16.81448 307 ft 18 kts 107°
2026-05-05 15:02 52.42108 16.81723 304 ft 36 kts 107°
2026-05-05 15:02 52.42018 16.82195 304 ft 48 kts 108°
2026-05-05 15:02 52.41922 16.82690 304 ft 31 kts 107°
2026-05-05 15:03 52.41855 16.82915 303 ft 12 kts 160°
2026-05-05 15:03 52.41792 16.82894 302 ft 10 kts 204°
2026-05-05 15:03 52.41721 16.82852 300 ft 12 kts 191°
2026-05-05 15:03 52.41645 16.82841 301 ft 10 kts 192°
2026-05-05 15:04 52.41591 16.82820 299 ft 5 kts 193°
2026-05-05 15:04 52.41579 16.82816 300 ft 0 kts 192°